This demonstration page uses our WeatherBlox Daily Observations layout. Learn more.

Left ArrowRight Arrow

Hourly Observations for November 2, 2020

Temp ( °F °C ) Dew Point ( °F °C ) Humidity (%) Winds ( mph kmh ) Pressure ( in mb ) Visibility ( mi km ) Precip ( " mm )
12:53 am 00:53 Clear 32 0 21 -6.1 64 64 W 6 9 30.38 1029 10 16 0.00 0.00
1:53 am 01:53 Clear 31 -0.6 21 -6.1 67 67 W 6 9 30.39 1029 10 16 0.00 0.00
2:53 am 02:53 Clear 30 -1.1 21 -6.1 69 69 W 5 7 30.39 1029 10 16 0.00 0.00
3:53 am 03:53 Clear 28 -2.2 20 -6.7 72 72 W 6 9 30.40 1030 10 16 0.00 0.00
4:53 am 04:53 Clear 26 -3.3 20 -6.7 78 78 W 3 6 30.42 1030 10 16 0.00 0.00
5:53 am 05:53 Clear 24 -4.4 20 -6.7 84 84 Calm 30.42 1030 10 16 0.00 0.00
6:53 am 06:53 Clear 27 -2.8 21 -6.1 78 78 W 6 9 30.44 1031 10 16 0.00 0.00
7:53 am 07:53 Sunny 29 -1.7 22 -5.6 75 75 W 5 7 30.44 1031 10 16 0.00 0.00
8:53 am 08:53 Sunny 33 0.6 22 -5.6 64 64 WSW 7 11 30.46 1031 10 16 0.00 0.00
9:53 am 09:53 Sunny 38 3.3 23 -5 55 55 VRB 6 9 30.45 1031 10 16 0.00 0.00
10:53 am 10:53 Sunny 41 5 23 -5 49 49 WSW 8 13 30.43 1031 10 16 0.00 0.00
11:53 am 11:53 Sunny 45 7.2 22 -5.6 40 40 WSW 8 13 30.41 1030 10 16 0.00 0.00
12:53 pm 12:53 Sunny 47 8.3 17 -8.3 30 30 WSW 10 17 30.37 1028 10 16 0.00 0.00
1:53 pm 13:53 Sunny 50 10 17 -8.3 27 27 WSW 9 15 30.32 1027 10 16 0.00 0.00
2:53 pm 14:53 Sunny 50 10 14 -10 24 24 W 12 19 30.30 1026 10 16 0.00 0.00
3:53 pm 15:53 Sunny 50 10 15 -9.4 25 25 WSW 9 15 30.30 1026 10 16 0.00 0.00
4:53 pm 16:53 Sunny 47 8.3 17 -8.3 30 30 W 8 13 30.29 1026 10 16 0.00 0.00
5:53 pm 17:53 Clear 44 6.7 18 -7.8 35 35 VRB 5 7 30.27 1025 10 16 0.00 0.00
6:53 pm 18:53 Clear 42 5.6 17 -8.3 36 36 SW 6 9 30.26 1025 10 16 0.00 0.00
7:53 pm 19:53 Clear 41 5 17 -8.3 38 38 VRB 6 9 30.26 1025 10 16 0.00 0.00
8:53 pm 20:53 Clear 42 5.6 17 -8.3 36 36 SW 6 9 30.24 1024 10 16 0.00 0.00
9:53 pm 21:53 Clear 41 5 18 -7.8 39 39 VRB 3 6 30.24 1024 10 16 0.00 0.00
10:53 pm 22:53 Clear 41 5 19 -7.2 41 41 WSW 7 11 30.24 1024 10 16 0.00 0.00
11:53 pm 23:53 Clear 41 5 19 -7.2 41 41 VRB 6 9 30.23 1024 10 16 0.00 0.00

Powered by AerisWeather